Weather History for Bartow, FL

Change the Weather History Date:

Friday, July 6, 2012

  Actual Average Record
Temperature  
Mean Temperature 81 °F -  
Max Temperature 93 °F 92 °F 98 °F (1932)
Min Temperature 69 °F 71 °F 60 °F (1947)
Cooling Degree Days 16    
Growing Degree Days 31 (Base 50)    
Moisture  
Dew Point 71 °F    
Average Humidity 85    
Maximum Humidity 100    
Minimum Humidity 36    
Precipitation  
Precipitation 0.08 in - - ()
Sea Level Pressure  
Sea Level Pressure 30.05 in    
Wind  
Wind Speed 2 mph (SSE)    
Max Wind Speed 16 mph    
Max Gust Speed -    
Visibility 9 miles    
Events Rain , Thunderstorm    
Averages and records for this station are not official NWS values.
T = Trace of Precipitation, MM = Missing Value Source: NWS Daily Summary

Daily Weather History Graph

Daily Weather History Graph

Search for Another Location

Airport:

Trip Planner

Search our weather history database for the weather conditions in past years. The results will help you decide how hot, cold, wet, or windy it might be!

Date:

Astronomy

Jul. 06, 2012 Rise Set
Actual Time 6:36 AM EDT 8:27 PM EDT
Civil Twilight 6:10 AM EDT 8:53 PM EDT
Nautical Twilight 5:38 AM EDT 9:25 PM EDT
Astronomical Twilight 5:04 AM EDT 9:59 PM EDT
Moon 10:38 PM EDT (7/6) 9:35 AM EDT (7/6)
Length of Visible Light 14h 43m
Length of Day
13h 50m
Waning Gibbous, 89% of the Moon is Illuminated
Jul 6
Waning Gibbous
Jul 10
Last Quarter
Jul 19
New
Jul 26
First Quarter
Aug 1
Full

Hourly Weather History & Observations

Time (EDT) Temp. Heat Index Dew Point Humidity Pressure Visibility Wind Dir Wind Speed Gust Speed Precip Events Conditions
12:15 AM 75.2 °F - 73.4 °F 94% 30.07 in 10.0 mi Calm Calm - N/A   Mostly Cloudy
12:35 AM 73.4 °F - 73.4 °F 100% 30.06 in 10.0 mi ESE 3.5 mph - N/A   Scattered Clouds
12:55 AM 73.4 °F - 73.4 °F 100% 30.06 in 10.0 mi ESE 3.5 mph - N/A   Scattered Clouds
1:15 AM 73.4 °F - 73.4 °F 100% 30.06 in 10.0 mi Calm Calm - N/A   Mostly Cloudy
1:35 AM 73.4 °F - 73.4 °F 100% 30.05 in 9.0 mi Calm Calm - N/A   Partly Cloudy
1:55 AM 73.4 °F - 73.4 °F 100% 30.05 in 9.0 mi Calm Calm - N/A   Partly Cloudy
2:15 AM 73.4 °F - 73.4 °F 100% 30.04 in 9.0 mi Calm Calm - N/A   Partly Cloudy
2:35 AM 73.4 °F - 73.4 °F 100% 30.04 in 9.0 mi Calm Calm - N/A   Partly Cloudy
2:55 AM 71.6 °F - 71.6 °F 100% 30.04 in 8.0 mi North - - N/A   Scattered Clouds
3:15 AM 71.6 °F - 71.6 °F 100% 30.03 in 9.0 mi Calm Calm - N/A   Mostly Cloudy
3:35 AM 71.6 °F - 71.6 °F 100% 30.03 in 9.0 mi Calm Calm - N/A   Overcast
4:35 AM 71.6 °F - 71.6 °F 100% 30.04 in 8.0 mi Calm Calm - N/A   Mostly Cloudy
4:55 AM 71.6 °F - 71.6 °F 100% 30.04 in 8.0 mi Calm Calm - N/A   Partly Cloudy
5:15 AM 71.6 °F - 71.6 °F 100% 30.05 in 9.0 mi Calm Calm - N/A   Scattered Clouds
5:35 AM 69.8 °F - 69.8 °F 100% 30.05 in 9.0 mi SSE 5.8 mph - N/A   Mostly Cloudy
5:55 AM 71.6 °F - 71.6 °F 100% 30.05 in 10.0 mi SSE 4.6 mph - N/A   Mostly Cloudy
6:15 AM 71.6 °F - 71.6 °F 100% 30.05 in 9.0 mi SSE 3.5 mph - N/A   Mostly Cloudy
6:35 AM 71.6 °F - 71.6 °F 100% 30.06 in 9.0 mi Calm Calm - N/A   Scattered Clouds
6:55 AM 73.4 °F - 73.4 °F 100% 30.06 in 8.0 mi Calm Calm - N/A   Partly Cloudy
7:15 AM 71.6 °F - 71.6 °F 100% 30.06 in 8.0 mi Calm Calm - N/A   Partly Cloudy
7:30 AM 71.6 °F - 71.6 °F 100% 30.07 in 10.0 mi Calm Calm - N/A   Scattered Clouds
7:50 AM 73.4 °F - 73.4 °F 100% 30.08 in 10.0 mi Calm Calm - N/A   Mostly Cloudy
8:50 AM 78.8 °F - 73.4 °F 83% 30.08 in 12.0 mi South 5.8 mph - N/A   Mostly Cloudy
9:51 AM 82.4 °F 87.2 °F 71.6 °F 70% 30.09 in 15.0 mi South 5.8 mph - N/A   Mostly Cloudy
11:50 AM 86.0 °F 89.4 °F 68.0 °F 55% 30.08 in 15.0 mi Calm Calm - N/A   Mostly Cloudy
12:51 PM 87.8 °F 91.4 °F 68.0 °F 52% 30.08 in 15.0 mi WSW 3.5 mph - N/A   Mostly Cloudy
1:50 PM 89.6 °F 92.2 °F 66.2 °F 46% 30.06 in 15.0 mi South 4.6 mph - N/A   Mostly Cloudy
2:50 PM 91.4 °F 93.2 °F 64.4 °F 41% 30.05 in 15.0 mi SSW 8.1 mph - N/A   Scattered Clouds
4:50 PM 91.4 °F 92.1 °F 62.6 °F 38% 30.02 in 10.0 mi Calm Calm - N/A   Scattered Clouds
5:35 PM 91.4 °F 92.1 °F 62.6 °F 38% 30.01 in 8.0 mi SSE 4.6 mph - N/A   Mostly Cloudy
5:55 PM 93.2 °F 94.1 °F 62.6 °F 36% 30.01 in 8.0 mi SSW 3.5 mph - N/A   Mostly Cloudy
6:15 PM 91.4 °F 93.2 °F 64.4 °F 41% 30.00 in 8.0 mi SSE 6.9 mph - N/A   Mostly Cloudy
6:35 PM 91.4 °F 93.2 °F 64.4 °F 41% 30.00 in 7.0 mi SE 5.8 mph - N/A   Mostly Cloudy
6:55 PM 91.4 °F 93.2 °F 64.4 °F 41% 30.01 in 7.0 mi SE 3.5 mph - N/A Thunderstorm Mostly Cloudy
7:15 PM 84.2 °F 89.6 °F 71.6 °F 66% 30.01 in 2.5 mi SW 16.1 mph - 0.01 in Rain , Thunderstorm Heavy Rain
7:35 PM 78.8 °F - 69.8 °F 74% 30.04 in 3.0 mi WSW 9.2 mph - 0.08 in Rain , Thunderstorm Rain
7:55 PM 75.2 °F - 73.4 °F 94% 30.03 in 7.0 mi NW 10.4 mph - 0.08 in Thunderstorm Mostly Cloudy
8:35 PM 75.2 °F - 73.4 °F 94% 30.03 in 8.0 mi NNE 3.5 mph - N/A   Mostly Cloudy
8:55 PM 77.0 °F - 75.2 °F 94% 30.03 in 10.0 mi Calm Calm - N/A   Mostly Cloudy
9:15 PM 75.2 °F - 75.2 °F 100% 30.03 in 10.0 mi Calm Calm - N/A   Scattered Clouds
9:35 PM 75.2 °F - 75.2 °F 100% 30.03 in 9.0 mi Calm Calm - N/A   Scattered Clouds
9:55 PM 77.0 °F - 73.4 °F 89% 30.05 in 10.0 mi Calm Calm - N/A   Mostly Cloudy
10:15 PM 75.2 °F - 75.2 °F 100% 30.06 in 10.0 mi Calm Calm - N/A   Mostly Cloudy
10:35 PM 75.2 °F - 75.2 °F 100% 30.07 in 10.0 mi Calm Calm - N/A   Mostly Cloudy
10:55 PM 75.2 °F - 75.2 °F 100% 30.07 in 10.0 mi ESE 3.5 mph - N/A   Scattered Clouds
11:15 PM 75.2 °F - 75.2 °F 100% 30.07 in 9.0 mi SE 3.5 mph - N/A   Partly Cloudy
11:35 PM 75.2 °F - 75.2 °F 100% 30.08 in 9.0 mi Calm Calm - N/A   Clear
11:55 PM 75.2 °F - 73.4 °F 94% 30.08 in 10.0 mi Calm Calm - N/A   Partly Cloudy